Regional Weather Roundup
Issued by NWS Upton, NY

Current Version | Previous Version | Text Only | Print | Product List | Glossary On
Versions: 1 2 3 4 5 6 7 8 9 10 11 12 13 14 15 16 17 18 19 20 21 22 23 24 25 26 27
000 ASUS41 KOKX 260105 RWROKX REGIONAL WEATHER ROUNDUP NATIONAL WEATHER SERVICE NEW YORK NY 900 PM EDT SAT OCT 25 2014 NOTE: "FAIR" INDICATES FEW OR NO CLOUDS BELOW 12,000 FEET WITH NO SIGNIFICANT WEATHER AND/OR OBSTRUCTIONS TO VISIBILITY. NYZ071-072-176-178-NJZ106-104-260200- NEW YORK CITY METRO AREA CITY SKY/WX TMP DP RH WIND PRES REMARKS CENTRAL PARK CLEAR 63 43 48 MISG 29.64F LAGUARDIA APRT PTCLDY 64 43 46 SW14 29.61F KENNEDY INTL PTCLDY 62 48 60 SW14 29.64F NEWARK/LIBERTY MOCLDY 63 44 50 S9G17 29.62F BRNX BOT. GARD N/A 63 43 48 NW9 29.62S TETERBORO CLEAR 62 43 49 SW12 29.60F $$ NYZ177-179-078>081-260200- LONG ISLAND NEW YORK CITY SKY/WX TMP DP RH WIND PRES REMARKS FARMINGDALE CLEAR 60 47 61 SW10 29.63F ISLIP PTCLDY 59 48 67 SW10 29.61F SHIRLEY CLEAR 60 48 64 SW8 29.63F WESTHAMPTON CLEAR 60 48 64 SW9 29.63F MONTAUK POINT N/A 62 52 69 SW10G20 29.62F $$ NYZ052-065-067-260200- HUDSON VALLEY CITY SKY/WX TMP DP RH WIND PRES REMARKS WHITE PLAINS CLEAR 60 43 53 CALM 29.59F NEWBURGH CLEAR N/A N/A N/A SW12 29.58F MONTGOMERY CLEAR 56 43 61 SW9 29.56F POUGHKEEPSIE PTCLDY 52 44 74 CALM 29.56F ALBANY MOCLDY 54 47 77 VRB3 29.55R $$ NJZ001-105-106-008-010-013-015-019>022-104-260200- NEW JERSEY CITY SKY/WX TMP DP RH WIND PRES REMARKS NEWARK/LIBERTY MOCLDY 63 44 50 S9G17 29.62F TETERBORO CLEAR 62 43 49 SW12 29.60F CALDWELL CLEAR 61 42 49 VRB3 29.62F MORRISTOWN CLEAR 61 45 55 SW10 29.63F SOMERVILLE CLEAR 58 44 60 S3 29.62F SUSSEX CLEAR 62 44 51 SW5 29.58F ANDOVER N/A 58 43 57 S3 29.62F TRENTON MOCLDY 62 43 49 SW8 29.65F MILLVILLE CLEAR 59 45 59 SW6 29.71F ATLANTIC CITY CLEAR 58 47 66 SW8 29.70F WRIGHTSTOWN PTCLDY 58 46 63 SW9 29.65F TOMS RIVER CLOUDY 57 45 62 SW7 29.68F BELMAR PTCLDY 61 43 51 SW9G16 29.66F $$ PAZ047>061-062-071-260200- EASTERN PENNSYLVANIA CITY SKY/WX TMP DP RH WIND PRES REMARKS PHILADELPHIA PTCLDY 62 46 55 SW12 29.68F ALLENTOWN CLEAR 58 45 62 SW9 29.63F SCRANTON CLOUDY 63 46 54 SW9 29.61S $$ CTZ002-004>006-009-010-012-RIZ004-006-007-MAZ004-011-015-260200- SOUTHERN NEW ENGLAND IN CT CITY SKY/WX TMP DP RH WIND PRES REMARKS BRADLEY INTL MOCLDY 58 42 55 S6 29.56F HARTFORD PTCLDY 56 45 66 S7 29.56F DANBURY CLEAR 60 42 51 SW10 29.59F WTRBRY/OXFORD PTCLDY 55 41 58 CALM 29.58F BRIDGEPORT CLEAR 62 50 64 SW15 29.59F MERIDEN PTCLDY 54 46 74 SE6 29.58F NEW HAVEN CLEAR 63 50 62 SW7 29.59F CHESTER FAIR 55 48 76 SW7 29.60F GROTON MOCLDY 59 52 77 SW9 29.60F WILLIMANTIC MOCLDY 54 45 71 S5 29.58F IN RI CITY SKY/WX TMP DP RH WIND PRES REMARKS PROVIDENCE CLOUDY 58 46 64 W10 29.60F BLOCK ISLAND MOCLDY 61 52 72 SW16G23 29.62F WESTERLY CLOUDY 60 50 69 SW7 29.61F IN MA CITY SKY/WX TMP DP RH WIND PRES REMARKS BOSTON CLOUDY 57 45 64 SW8 29.57F WORCESTER MOCLDY 49 42 77 SW9 29.57F WESTFIELD MOCLDY 51 44 77 S3 29.55F PROVINCETOWN PTCLDY 54 0 11 SW12 29.59S NANTUCKET CLEAR 58 51 78 W14 29.62F $$ ANZ330-335-338-340-345-350-353-355-260200- COASTAL MARINE OBSERVATIONS STATION/POSITION TIME SKY/WX TEMP WIND PRES VSBY WAVE AIR SEA DIR/SP/G HT/PER (UTC) (F) (DEG/KT/KT) (MB) (MI) (FT/S) NY HARB ENTRANCE NOT AVBL 4S FIRE IS 0100 62 N/A 3/ 4 20S FIRE ISLAND 0100 64 63 240/ 19/ 23 1003.7 4/ 5 23SW MTP 0100 N/A 4/ 5 HUDSON CANYON 0100 63 65 240/ 19/ 25 1005.0 5/ 5 EXECUTION ROCKS 0100 64 61 230/ 14/ 19 N/A WESTERN LI SOUND 0100 63 200/ 12/ 14 N/A 1/ 3 CENTRAL LI SOUND 0000 62 62 230/ 17/ 21 N/A 2/ 4 EASTERN LI SOUND 0000 61 62 220/ 16/ 19 N/A ROBBINS REEF 0100 64 230/ 12/ 16 1002.0 $$ >>>>>>>>>>>>>>>>>>>>>>>>>>>> KEY <<<<<<<<<<<<<<<<<<<<<<<<<<< > < > SKY/WX - SKY CONDITION/PRESENT WEATHER < > TMP - TEMPERATURE IN FAHRENHEIT < > DP - DEWPOINT IN FAHRENHEIT < > RH - RELATIVE HUMIDITY IN PERCENT < > WIND - DIRECTION AND SPEED IN MPH < > PRES - MEAN SEA LEVEL PRESSURE IN INCHES OF HG < > WCI - WIND CHILL INDEX < > VSB - VISIBILITY IN MILES < > HX - HEAT INDEX < > TC - TEMPERATURE IN CELSIUS < > VRB - VARIABLE WIND DIRECTION < > < >>>>>>>>>>>>>>>>>>>>>>>>>>>> KEY <<<<<<<<<<<<<<<<<<<<<<<<<<<

USA.gov is the U.S. government's official web portal to all federal, state and local government web resources and services.